DW0805 Weather Reports


time (UTC)temp
F
wind
direction
speed
knots
gust
knots
rain 1hr
in
rain 24hr
in
rain mn
in
humidity
%
barometer
mb
20260901092515 65 335 5.2 13.9 0.00 0.13 0.00 88 1010.9
20260901090515 64 335 6.1 11.3 0.00 0.13 0.00 88 1010.7
20260901080514 63 296 6.1 12.2 0.00 0.13 0.00 90 1010.0
20260901075515 63 267 6.1 12.2 0.00 0.13 0.00 91 1009.9
20260901073514 63 288 6.1 11.3 0.00 0.13 0.00 91 1009.7
20260901070514 63 263 5.2 7.8 0.00 0.13 0.00 93 1009.5
20260901064516 62 303 4.3 8.7 0.00 0.13 0.00 94 1009.3
20260901062515 61 285 3.5 8.7 0.00 0.13 0.00 95 1009.1
20260901061515 61 288 1.7 6.1 0.00 0.13 0.00 95 1009.1
20260901055514 61 296 1.7 4.3 0.00 0.13 0.00 95 1009.0
20260901052515 59 336 2.6 6.1 0.00 0.13 0.00 95 1008.8
20260901050515 59 279 2.6 6.1 0.00 0.13 0.00 95 1008.6
20260901045515 59 270 2.6 7.8 0.00 0.13 0.00 95 1008.6
20260901043515 59 279 3.5 6.1 0.00 0.13 0.00 95 1008.4
20260901040515 59 267 1.7 5.2 0.00 0.13 0.00 95 1008.3
20260901035515 59 266 1.7 4.3 0.00 0.13 0.00 95 1008.2
20260901032515 59 230 3.5 5.2 0.00 0.13 0.00 95 1008.0
20260901031515 59 221 1.7 5.2 0.00 0.13 0.00 95 1008.0
20260901025514 59 249 1.7 6.1 0.00 0.13 0.00 95 1007.9
20260901024515 59 251 2.6 5.2 0.00 0.13 0.00 95 1007.9
20260901023517 59 247 2.6 6.1 0.00 0.13 0.00 95 1007.8
20260901021515 59 242 2.6 6.1 0.00 0.13 0.00 95 1007.8
20260901020515 59 225 5.2 7.0 0.00 0.13 0.00 95 1007.8
20260901015515 59 241 4.3 7.8 0.00 0.13 0.00 94 1007.7
20260901011515 59 219 2.6 5.2 0.00 0.13 0.00 94 1007.5
20260901010515 60 223 2.6 7.8 0.00 0.13 0.00 94 1007.5
20260901005515 60 217 5.2 8.7 0.00 0.13 0.00 94 1007.6
20260901003515 60 229 4.3 7.0 0.00 0.13 0.00 94 1007.5
20260901001516 60 229 4.3 7.8 0.00 0.13 0.00 94 1007.4
20260901000514 60 231 4.3 7.0 0.00 0.13 0.00 94 1007.3
20260831234516 60 229 5.2 8.7 0.00 0.13 0.00 94 1007.3
20260831233515 60 233 4.3 7.0 0.00 0.13 0.00 94 1007.3
20260831232515 60 224 1.7 5.2 0.00 0.13 0.00 94 1007.3
20260831231516 61 225 2.6 7.0 0.00 0.13 0.00 94 1007.3
20260831230516 61 230 3.5 7.0 0.00 0.13 0.00 93 1007.3
20260831224515 61 202 2.6 6.1 0.00 0.13 0.00 93 1007.3
20260831222515 61 230 2.6 7.8 0.00 0.13 0.00 94 1007.3
20260831220515 61 224 1.7 5.2 0.00 0.13 0.00 94 1007.4
20260831212515 60 228 3.5 6.1 0.01 0.13 0.13 94 1007.1
20260831203516 60 212 0.0 5.2 0.00 0.13 0.13 93 1007.0
20260831202516 60 206 0.9 5.2 0.00 0.13 0.13 93 1006.8
20260831201516 60 206 0.9 4.3 0.00 0.13 0.13 93 1006.8
20260831200517 60 226 1.7 4.3 0.00 0.13 0.13 93 1006.8
20260831195516 60 227 1.7 4.3 0.00 0.13 0.13 93 1006.9
20260831193515 61 200 1.7 5.2 0.00 0.13 0.13 92 1006.8
20260831191516 61 200 1.7 5.2 0.00 0.13 0.13 92 1006.8
20260831185515 61 139 0.9 4.3 0.00 0.13 0.13 92 1006.4
20260831183515 61 197 0.0 1.7 0.00 0.13 0.13 91 1006.2
20260831170514 63 225 2.6 6.1 0.00 0.14 0.13 89 1006.0
20260831165515 63 292 4.3 7.0 0.00 0.14 0.13 89 1006.1
20260831164515 63 203 4.3 6.1 0.00 0.14 0.13 90 1006.1
20260831162515 63 235 4.3 7.0 0.02 0.14 0.13 90 1006.2
20260831161515 63 269 2.6 5.2 0.02 0.14 0.13 90 1006.1
20260831160514 63 243 2.6 6.1 0.02 0.14 0.13 90 1006.1
20260831150514 65 209 6.1 13.9 0.02 0.13 0.11 87 1006.1
20260831145514 66 221 7.8 11.3 0.01 0.12 0.10 84 1006.1
20260831144514 67 213 4.3 11.3 0.00 0.11 0.09 82 1006.0
20260831143514 67 242 7.8 11.3 0.00 0.11 0.09 81 1006.1
20260831141514 69 230 7.0 11.3 0.00 0.11 0.09 81 1006.1
20260831140514 69 212 6.1 10.4 0.00 0.11 0.09 82 1006.1
20260831135514 69 218 5.2 10.4 0.00 0.11 0.09 82 1005.9
20260831134514 68 225 6.1 12.2 0.00 0.11 0.09 81 1005.8
20260831133515 69 221 6.1 11.3 0.00 0.11 0.09 82 1005.9
20260831132516 69 219 7.0 12.2 0.00 0.11 0.09 83 1006.0
20260831131514 69 221 4.3 10.4 0.00 0.11 0.09 83 1005.9
20260831130514 69 214 5.2 12.2 0.00 0.12 0.09 84 1005.9
20260831125515 70 272 6.1 10.4 0.00 0.12 0.09 84 1006.0
20260831123514 69 187 4.3 7.8 0.00 0.12 0.09 88 1005.8
20260831115514 68 194 1.7 7.0 0.01 0.20 0.09 89 1006.2
20260831113514 65 173 2.6 7.0 0.06 0.20 0.09 90 1006.3
20260831110515 64 139 1.7 5.2 0.09 0.20 0.09 92 1006.4
20260831105515 63 139 1.7 5.2 0.08 0.20 0.09 92 1006.5
20260831104514 63 190 5.2 10.4 0.07 0.19 0.08 91 1006.6
20260831103515 64 192 5.2 7.8 0.03 0.15 0.04 90 1006.2
20260831102515 65 188 6.1 10.4 0.01 0.13 0.02 90 1006.4
20260831100514 66 158 1.7 7.8 0.00 0.12 0.01 90 1006.5
20260831094514 66 143 4.3 8.7 0.00 0.12 0.01 93 1006.6